Home > Time Zones > World Clock > Weather > India > Ajmer > Past weeks

Flag for India Weather past 2 weeks in Ajmer, Rajasthan, India

Now
82 °F

Low level haze.


Feels Like: 82 °F
Forecast: 79 / 104 °F
Wind: 12 mph from East

Location: Jaipur / Sanganer

Current Time: Apr 26, 2015 at 4:05:05 AM

Latest Report: Apr 26, 2015 at 2:30 AM


Visibility: 2 mi

Pressure: 29.77 "Hg

Humidity: 42%

Dew point: 57 °F

Location of AjmerLocation

Historic Weather in Ajmer — Graph

°F

Ajmer temperature yesterday

Maximum temperature yesterday: 106 °F (at 3:00 PM)
Minimum temperature yesterday: 79 °F (at 7:00 AM)
Average temperature yesterday: 92 °F

Past Weeks' High & Low Weather Summary

 TemperatureHumidityPressure
High106 °F (Apr 25, 3:00 PM)78% (Apr 13, 1:00 AM)30.07 "Hg (Apr 13, 1:00 AM)
Low70 °F (Apr 13, 12:00 AM)6% (Apr 23, 5:00 PM)29.62 "Hg (Apr 18, 3:30 PM)
Average87 °F34%29.84 "Hg
* Reported Apr 11 2:30 AM — Apr 26 2:30 AM, Ajmer, Weather by CustomWeather, © 2015

Note: Actual official high and low records may vary slightly from our data, if they occured in-between our weather recording intervals... More about our weather records

Advertising

Ajmer weather history for previous 24 hours

 ConditionsComfort  
Time TempWeatherWind HumidityBarometerVisibility
2:30 AM
Sun, Apr 26
82 °FLow level haze.12 mph42%29.77 "Hg2 mi
1:00 AM86 °FLow level haze.15 mph38%29.77 "Hg2 mi
12:00 AM88 °FLow level haze.15 mph33%29.77 "Hg2 mi
11:30 PM
Sat, Apr 25
90 °FHaze.15 mph29%29.77 "Hg2 mi
11:00 PM90 °FHaze.13 mph27%29.74 "Hg2 mi
10:00 PM91 °FHaze.9 mph17%29.74 "Hg2 mi
9:30 PM93 °FHaze.5 mph12%29.74 "Hg2 mi
9:00 PM95 °FPassing clouds.3 mph12%29.71 "HgN/A
8:30 PM95 °FHaze.3 mph12%29.71 "Hg2 mi
8:00 PM97 °FHaze.3 mph10%29.71 "Hg2 mi
7:30 PM97 °FPassing clouds.5 mph10%29.68 "Hg2 mi
7:00 PM100 °FScattered clouds.5 mph8%29.68 "Hg2 mi
6:00 PM102 °FScattered clouds.9 mph8%29.68 "Hg2 mi
5:00 PM104 °FScattered clouds.13 mph8%29.65 "Hg3 mi
4:00 PM104 °FHaze.10 mph9%29.68 "Hg3 mi
3:00 PM106 °FHaze.9 mph9%29.71 "Hg3 mi
11:30 AM99 °FHaze.13 mph19%29.77 "Hg3 mi
9:30 AM93 °FHaze.10 mph17%29.80 "Hg1 mi
8:00 AM88 °FHaze.5 mph19%29.80 "Hg1 mi
7:30 AM84 °FHaze.1 mph29%29.80 "Hg1 mi
7:00 AM79 °FHaze.1 mph32%29.77 "Hg2 mi
4:00 AM84 °FHaze.7 mph15%29.71 "Hg2 mi
Weather by CustomWeather, © 2015

See weather overviewHow to use our weather pages